Torna al catalogo

SPACEMOBILE-008

AttivoComunicazioniVLEO
NORAD 69589·PAYLOAD·🇺🇸 United States

Lanciato Jun 17, 2026 da Cape Canaveral Space Force Station

Loading…

Prossimi Passaggi (prossime 24 ore)

TLE

AggiornatoSource: CelesTrak SupGP

Epoca: Sep 14, 2026, 10:53 UTC

1 69589C 26139A   26257.45361111  .00004035  00000+0  22560-3 0  2578
2 69589  52.9938 217.2486 0002597 223.4130 112.3042 15.12973660    17

Traccia SPACEMOBILE-008 in tempo reale con AllMySat

Download on the App Store